User: anonymous   Login
Location: Whispering Pines Observatory
(39.4020°N, 104.7430°W)
Time: 05:30:42
(UTC-06:00)
Language:

MOS 1 Rocket - Orbit

View from above orbital plane
View from above orbital plane
View from above satellite
View from above satellite

Ground track
Ground track

The orbit data is extracted from the following two-line orbital elements,

1 17528U 87018B   18110.81505951  .00000098  00000-0  30546-4 0  9991
2 17528  97.4840  38.6021 0153709  54.6166   7.7506 14.50845657644486
Epoch (UTC): 20 April 2018 19:33:41
Eccentricity: 0.0153709
inclination: 97.4840°
perigee height: 614 km
apogee height: 832 km
right ascension of ascending node: 38.6021°
argument of perigee: 54.6166°
revolutions per day: 14.50845657
mean anomaly at epoch: 7.7506°
orbit number at epoch: 64448

The dashed part of the orbit path shows where the satellite is in the earth's shadow,  

DLR